Weather in San José del Guaviare

Colombia     2°33′59″N   72°38′21″W
В апреле 2022 года жителям России запретили посещать сайт meteo.paraplan.net по решению Генеральной прокуратуры. Аудитория сайта уменьшилась в 10 раз. Владельцы сайта не видят смысла в поддержке погодного сервера в таких условиях. Сайт будет закрыт в октябре.
temp.,
°C
wind,
m/s
gust,
m/s
humid.,
%
clouds,
%
prec.,
mm/h
press.,
hPa
HPBL,
m
2 october, sun
sun201:00+20sw1193100 0.0 101415
04:00+20sw119184 0.0 101455
07:00+22wsw1285100 0.0 1016156
10:00+23wsw138567 0.1 1017225
13:00+31sw125121 0.1 10131168
16:00+29nw125727 0.0 10111015
19:00+23ese0185100 0.2 101311
22:00+21sw119874 1.9 101515
3 october, mon
mon301:00+21sw119858 2.4 101317
04:00+21ssw009821 0.1 101312
07:00+22se129780 1.7 1015122
10:00+30sw116071 0.0 1015938
13:00+29ssw1275100 3.6 1012569
16:00+28ese1175100 1.6 1009188
19:00+23ese0094100 1.9 101011
22:00+22sse009591 0.0 101111
4 october, tue
tue401:00+21sw119627 0.0 101011
04:00+21sw00965 0.0 101011
07:00+23sw018914 0.0 101297
10:00+31se115425 0.0 10131017
13:00+34ese114469 0.0 10082086
16:00+29nne127189 0.1 1006226
19:00+25nne008774 0.3 100811
22:00+24nnw119095 0.0 100911
5 october, wed
wed501:00+24wnw0090100 0.0 100811
04:00+23nnw1192100 0.0 100712
07:00+25ne018598 0.0 1010110
10:00+31nne235799 0.0 10101140
13:00+35nne124478 0.0 10072386
16:00+28nne1272100 0.1 100531
19:00+27nne1173100 0.1 100713
22:00+24ene118595 0.2 100916
6 october, thu
thu601:00+23ssw009267 0.7 100811
04:00+22nnw119597 0.0 100814
07:00+24n1288100 0.0 1010161
10:00+30nne2362100 0.0 10111085
13:00+30ne1277100 1.5 1007687
16:00+27ne2484100 0.7 1005184
19:00+24ne119469 1.6 100717
22:00+23n1197100 0.8 100918